Budapest Ferihegy, Hungary

1:09 PM CEST on March 26, 2017 (GMT +0200)
Ferihegy

Weather History for LHBP - October, 2010

Change the Weather History Date:

Friday, October 1, 2010

  Actual Average Record
Temperature  
Mean Temperature 44 °F -  
Max Temperature 53 °F 59 °F 82 °F (2011)
Min Temperature 35 °F 40 °F 35 °F (2010)
Degree Days  
Heating Degree Days 21    
Moisture  
Dew Point 42 °F    
Average Humidity 85    
Maximum Humidity 100    
Minimum Humidity 58    
Precipitation  
Precipitation 0.00 in - - ()
Sea Level Pressure  
Sea Level Pressure 30.08 in    
Wind  
Wind Speed 2 mph ()    
Max Wind Speed 8 mph    
Max Gust Speed -    
Visibility 5.1 miles    
Events Fog    
Averages and records for this station are not official NWS values.
T = Trace of Precipitation, MM = Missing Value Source: Averaged Metar Reports

Daily Weather History Graph

Daily Weather History Graph

Search for Another Location

Airport or City:

Trip Planner

Search our weather history database for the weather conditions in past years. The results will help you decide how hot, cold, wet, or windy it might be!

Date:

Astronomy

Oct. 01, 2010 Rise Set
Actual Time 6:41 AM CEST 6:22 PM CEST
Civil Twilight 6:10 AM CEST 6:53 PM CEST
Nautical Twilight 5:35 AM CEST 7:29 PM CEST
Astronomical Twilight 4:58 AM CEST 8:05 PM CEST
Moon 11:38 PM CEST (10/1) 2:43 PM CEST (10/1)
Length of Visible Light 12h 42m
Length of Day
11h 41m
Waning Gibbous, 47% of the Moon is Illuminated
Oct 1
Waning Gibbous
Oct 7
New
Oct 14
First Quarter
Oct 23
Full
Oct 30
Last Quarter

Hourly Weather History & Observations

Time (CEST) Temp. Windchill Dew Point Humidity Pressure Visibility Wind Dir Wind Speed Gust Speed Precip Events Conditions
12:00 AM 37.4 °F - 35.6 °F 93% 30.04 in - Calm Calm - N/A   Clear
12:30 AM 37.4 °F - 35.6 °F 93% 30.04 in - Variable 1.2 mph - N/A   Clear
1:00 AM 35.6 °F - 35.6 °F 100% 30.06 in - Variable 2.3 mph - N/A   Clear
1:30 AM 37.4 °F - 35.6 °F 93% 30.06 in 5.0 mi Calm Calm - N/A   Unknown
2:00 AM 39.2 °F - 37.4 °F 93% 30.06 in 5.0 mi Variable 1.2 mph - N/A   Unknown
2:30 AM 39.2 °F - 39.2 °F 100% 30.06 in 5.0 mi Variable 1.2 mph - N/A   Unknown
3:00 AM 41.0 °F - 39.2 °F 93% 30.06 in 5.0 mi Calm Calm - N/A   Unknown
3:30 AM 41.0 °F - 41.0 °F 100% 30.04 in 5.0 mi Calm Calm - N/A   Unknown
4:00 AM 41.0 °F - 39.2 °F 93% 30.06 in - Variable 2.3 mph - N/A   Clear
4:30 AM 39.2 °F 35.0 °F 39.2 °F 100% 30.06 in - NNE 5.8 mph - N/A   Clear
5:00 AM 41.0 °F - 39.2 °F 93% 30.06 in 4.3 mi Calm Calm - N/A Fog Patches of Fog
5:30 AM 41.0 °F 38.0 °F 39.2 °F 93% 30.04 in 3.1 mi NNE 4.6 mph - N/A Fog Patches of Fog
6:00 AM 41.0 °F - 41.0 °F 100% 30.06 in 0.5 mi Variable 2.3 mph - N/A Fog Fog
6:30 AM 41.0 °F - 41.0 °F 100% 30.06 in 1.2 mi Variable 2.3 mph - N/A Fog Patches of Fog
7:00 AM 41.0 °F - 41.0 °F 100% 30.06 in 2.5 mi Variable 2.3 mph - N/A   Mostly Cloudy
7:30 AM 42.8 °F 41.1 °F 42.8 °F 100% 30.06 in 3.1 mi Variable 3.5 mph - N/A   Scattered Clouds
8:00 AM 44.6 °F 43.1 °F 44.6 °F 100% 30.06 in 4.3 mi Variable 3.5 mph - N/A   Mostly Cloudy
8:30 AM 46.4 °F - 46.4 °F 100% 30.06 in 5.0 mi Variable 1.2 mph - N/A   Mostly Cloudy
9:00 AM 46.4 °F - 44.6 °F 93% 30.06 in 6.2 mi Variable 1.2 mph - N/A   Mostly Cloudy
9:30 AM 48.2 °F - 42.8 °F 82% 30.09 in 6.2 mi Variable 3.5 mph - N/A   Mostly Cloudy
10:00 AM 48.2 °F - 42.8 °F 82% 30.09 in 6.2 mi East 5.8 mph - N/A   Mostly Cloudy
10:30 AM 48.2 °F - 44.6 °F 87% 30.09 in 6.2 mi Variable 3.5 mph - N/A   Mostly Cloudy
11:00 AM 50.0 °F - 42.8 °F 76% 30.09 in 6.2 mi Variable 3.5 mph - N/A   Mostly Cloudy
11:30 AM 50.0 °F - 42.8 °F 76% 30.09 in 6.2 mi Variable 3.5 mph - N/A   Mostly Cloudy
12:00 PM 50.0 °F - 41.0 °F 71% 30.09 in 6.2 mi East 5.8 mph - N/A   Mostly Cloudy
12:30 PM 51.8 °F - 42.8 °F 71% 30.09 in 6.2 mi ESE 6.9 mph - N/A   Scattered Clouds
1:00 PM 53.6 °F - 41.0 °F 62% 30.09 in 6.2 mi ESE 5.8 mph - N/A   Mostly Cloudy
1:30 PM 53.6 °F - 41.0 °F 62% 30.09 in 6.2 mi East 8.1 mph - N/A   Mostly Cloudy
2:00 PM 53.6 °F - 39.2 °F 58% 30.09 in 6.2 mi ENE 6.9 mph - N/A   Mostly Cloudy
2:30 PM 53.6 °F - 39.2 °F 58% 30.09 in 6.2 mi ESE 5.8 mph - N/A   Mostly Cloudy
3:00 PM 53.6 °F - 39.2 °F 58% 30.09 in 6.2 mi East 5.8 mph - N/A   Mostly Cloudy
3:30 PM 51.8 °F - 39.2 °F 62% 30.06 in 6.2 mi ESE 4.6 mph - N/A   Mostly Cloudy
4:00 PM 53.6 °F - 41.0 °F 62% 30.09 in 6.2 mi East 4.6 mph - N/A   Mostly Cloudy
4:30 PM 53.6 °F - 41.0 °F 62% 30.09 in 6.2 mi East 5.8 mph - N/A   Mostly Cloudy
5:00 PM 51.8 °F - 41.0 °F 67% 30.09 in - East 6.9 mph - N/A   Clear
5:30 PM 51.8 °F - 42.8 °F 71% 30.09 in - ESE 6.9 mph - N/A   Clear
6:00 PM 51.8 °F - 42.8 °F 71% 30.09 in - East 5.8 mph - N/A   Clear
6:30 PM 50.0 °F - 44.6 °F 82% 30.09 in - Variable 3.5 mph - N/A   Clear
7:00 PM 48.2 °F - 46.4 °F 93% 30.09 in - Calm Calm - N/A   Clear
7:30 PM 50.0 °F - 46.4 °F 87% 30.09 in - Variable 3.5 mph - N/A   Clear
8:00 PM 50.0 °F - 46.4 °F 87% 30.09 in - Variable 2.3 mph - N/A   Clear
8:30 PM 48.2 °F - 46.4 °F 93% 30.12 in - Calm Calm - N/A   Clear
9:00 PM 48.2 °F - 46.4 °F 93% 30.12 in - Variable 1.2 mph - N/A   Clear
9:30 PM 50.0 °F - 44.6 °F 82% 30.12 in - Variable 1.2 mph - N/A   Clear
10:00 PM 48.2 °F - 46.4 °F 93% 30.12 in - Variable 3.5 mph - N/A   Clear
10:30 PM 48.2 °F - 46.4 °F 93% 30.12 in - Variable 2.3 mph - N/A   Clear
11:00 PM 48.2 °F - 44.6 °F 87% 30.12 in - Variable 2.3 mph - N/A   Clear
11:30 PM 48.2 °F - 46.4 °F 93% 30.12 in - Variable 2.3 mph - N/A   Clear